{"data":{"norad_id":69674,"epoch":"2026-09-19T19:51:52.003872Z","epoch_age_seconds":87062,"freshness":"FRESH","line1":"1 69674U 26144A   26262.82768523 -.00000352  00000+0  00000+0 0  9997","line2":"2 69674   6.8550 323.2091 0006045 339.9507 101.0837  1.00272507   890","mean_motion":1.00272507,"eccentricity":0.0006045,"inclination_deg":6.855,"raan_deg":323.2091,"arg_perigee_deg":339.9507,"mean_anomaly_deg":101.0837,"bstar":0,"rev_number":89,"period_min":1436.0865635882,"perigee_km":35760.904101477,"apogee_km":35811.881017715,"semimajor_km":42164.529559596,"source":"CELESTRAK","updated_at":"2026-09-20T09:00:25.041155Z"}}